Preview of NWS' New Version of Forecast
This preview is not operational and should not be used for support decisions.

Regional Weather Roundup (RWR)

Issued by National Weather Service (NWS)

                            
000
ASUS43 KMKX 221420
RWRWI 

WISCONSIN REGIONAL WEATHER ROUNDUP
NATIONAL WEATHER SERVICE MILWAUKEE/SULLIVAN WI
900 AM CDT MON APR 22 2019

NOTE: "FAIR" INDICATES FEW OR NO CLOUDS BELOW 12,000 FEET WITH NO
SIGNIFICANT WEATHER AND/OR OBSTRUCTIONS TO VISIBILITY.

WIZ001-002-006>008-014>016-023>028-221500-
NORTHWEST WISCONSIN
  
CITY           SKY/WX    TMP DP  RH WIND       PRES   REMARKS
SUPERIOR ARPT  RAIN      36  35  96 NE12G22   30.13R WCI  27          
ASHLAND        RAIN      38  37  97 NE13      30.12F FOG     WCI  30  
HAYWARD        LGT RAIN  41  39  93 NE10      30.05R                  
SIREN          LGT RAIN  42  40  95 N12G23    30.00F                  
CUMBERLAND     RAIN      41  39  93 N15       29.99F                  
RICE LAKE      CLOUDY    45  37  72 NE18      29.98F                  
CHETEK         CLOUDY    46  41  84 N6        29.99R                  
LADYSMITH      CLOUDY    45  43  90 NE9       30.00S                  
EAU CLAIRE     PTSUNNY   50  37  61 NE10      29.93S                  
MENOMONIE      FAIR      50  35  55 N8        29.93F                  
NEW RICHMOND   LGT RAIN  44  42  93 NE15G22   29.94F                  
OSCEOLA        CLOUDY    45  43  94 N7        30.03R                  
$$
 
WIZ003>005-009-010-017-018-221500-
NORTH CENTRAL WISCONSIN
  
CITY           SKY/WX    TMP DP  RH WIND       PRES   REMARKS
MANITOWISH WTR RAIN      39  39 100 E6        30.06S WCI  35          
ARBOR VITAE    LGT RAIN  42  39  92 NE8       30.05R                  
WOODRUFF       LGT RAIN  42  39  92 NE8       30.05R                  
RHINELANDER    LGT RAIN  45  37  73 NE6       30.04R                  
EAGLE RIVER    LGT RAIN  41  40  98 NE8       30.06R                  
LAND O LAKES   DRIZZLE   42  41  99 NE3       30.09R                  
PHILLIPS       CLOUDY    41  41 100 NE9       30.00F                  
TOMAHAWK       FAIR      44  38  79 N6        30.02F                  
MEDFORD        PTSUNNY   47  36  65 E12       29.96F                  
MERRILL        FAIR      47  39  74 NE7       29.99F                  
$$
 
WIZ029-030-035-036-043>047-221500-
CENTRAL WISCONSIN
  
CITY           SKY/WX    TMP DP  RH WIND       PRES   REMARKS
WAUSAU         NOT AVBL                                               
MOSINEE        PTSUNNY   46  36  66 NE12      29.98F                  
MARSHFIELD     FAIR      48  37  65 E13       29.95F                  
STEVENS POINT  FAIR      47  35  63 E9        29.98F                  
WAUPACA        FAIR      52  39  62 NE5       29.99F                  
WAUTOMA        FAIR      50  39  66 NE8       29.98F                  
WISC RAPIDS      N/A     49  34  56 MISG      29.97F                  
CAMP DOUGLAS   PTSUNNY   61  45  55 E12       29.92F                  
$$
 
WIZ011>013-019>022-031-037>040-048>050-221500-
NORTHEAST WISCONSIN
  
CITY           SKY/WX    TMP DP  RH WIND       PRES   REMARKS
ANTIGO         PTSUNNY   46  38  72 E8        30.02S                  
SHAWANO        FAIR      50  39  67 NE9       30.00F                  
OCONTO         CLOUDY    46  36  68 NE3       30.03S                  
STURGEON BAY   FAIR      47  39  74 SE8       30.04S                  
GREEN BAY      FAIR      50  39  66 NE9       30.02F                  
MANITOWOC      FAIR      50  39  66 SE9       30.02F                  
APPLETON       PTSUNNY   48  34  57 NE9       29.99F                  
CLINTONVILLE   FAIR      51  36  57 E6        30.00F                  
OSHKOSH        FAIR      48  40  73 NE10      29.98F                  
$$
 
WIZ032>034-041-042-053>061-221500-
SOUTHWEST WISCONSIN
  
CITY           SKY/WX    TMP DP  RH WIND       PRES   REMARKS
LA CROSSE      FAIR      68  46  45 E8        29.86F                  
SPARTA         FAIR      64  47  55 E8        29.90F                  
VIROQUA        FAIR      66  49  54 SE9       29.89F                  
BOSCOBEL       FAIR      68  48  48 VRB3      29.90F                  
PRAIRIE DU CHI FAIR      68  47  47 E6        29.88S                  
PLATTEVILLE    FAIR      67  51  56 S15       29.93F                  
$$

WIZ056-057-062-063-064-067-068-221500-
SOUTH CENTRAL WISCONSIN
  
CITY           SKY/WX    TMP DP  RH WIND       PRES   REMARKS
REEDSBURG      FAIR      65  47  52 S8        29.92F                  
BARABOO/DELLS  FAIR      63  44  50 S7        29.93F                  
LONE ROCK      FAIR      65  48  54 E7        29.92F                  
MINERAL POINT  FAIR      64  50  59 SE16      29.93F                  
MADISON        PTSUNNY   61  45  55 S9        29.95F                  
MIDDLETON      FAIR      62  45  55 S8        29.95F                  
WATERTOWN      FAIR      63  46  55 S8        29.98S                  
MONROE         FAIR      63  46  54 MISG      29.95F                  
JANESVILLE     PTSUNNY   63  45  51 S13       29.99F                  
$$
 
WIZ051-052-058>065-066-070>072-221500-
SOUTHEAST WISCONSIN
  
CITY           SKY/WX    TMP DP  RH WIND       PRES   REMARKS
MILWAUKEE      PTSUNNY   62  43  49 S9        30.01F                  
WAUKESHA       SUNNY     63  43  48 S14       30.01S                  
MILWAUKEE/TIMM SUNNY     63  39  42 S9        30.01F                  
RACINE         FAIR      56  39  53 SE10      30.04S                  
KENOSHA        FAIR      67  46  47 S12G23    30.02S                  
FOND DU LAC    FAIR      56  45  66 NE6       29.98F                  
SHEBOYGAN      FAIR      53  41  63 S5        30.01S                  
WEST BEND      FAIR      61  41  48 S5        30.00S                  
JUNEAU         FAIR      62  46  54 S9        29.99F                  
$$

LSZ147-162-221500-
LAKE SUPERIOR
  
STATION/POSITION TIME  TEMP    WIND        PRES    WAVE
                       AIR SEA DIR/SP/G            HT/PER
                 (UTC) (F)     (DEG/KT/KT) (MB)    (FT/S)
$$
 
LMZ867-665-643>646-221500-
LAKE MICHIGAN
  
STATION/POSITION TIME  TEMP    WIND        PRES    WAVE
                       AIR SEA DIR/SP/G            HT/PER
                 (UTC) (F)     (DEG/KT/KT) (MB)    (FT/S)
NORTHPORT PIER   1340   44     160/  4/  8 1017.3S
KEWAUNEE LAKESHO 1354   42     150/  4/  6 1016.1F
SHEBOYGAN LAKESH 1400   44     180/ 16/ 18 1016.5F
MILWAUKEE LAKESH 1400   44                   N/A
KENOSHA   LAKESH 1400   45     170/ 12/ 13 1016.9
$$

TC  - TEMPERATURE IN CELSIUS
VSB - VISIBILITY IN STATUTE MILES
WCI - WIND CHILL INDEX
HX  - HEAT INDEX